Terminal Aerodrome Forecast
Issued by NWS Grand Junction, CO

Home | Current Version | Previous Version | Text Only | Print | Product List | Glossary On
Versions: 1 2 3 4 5 6 7 8 9 10 11 12 13 14 15 16 17 18 19 20 21 22 23 24 25 26 27 28 29 30 31 32 33 34 35 36 37
000
FTUS45 KGJT 031731
TAFGJT
TAF
KGJT 031731Z 0318/0418 16009KT P6SM VCSH SCT060 BKN120
     FM032000 25014G22KT P6SM VCTS SCT070CB BKN110
     FM040200 11010KT P6SM SCT120
     FM041000 14008KT P6SM SCT120=

USA.gov is the U.S. government's official web portal to all federal, state and local government web resources and services.